Temp
14 14 14 14 14 14 14 14 14 13 14 14 14 16 17 18 18 18 17 17 18 17 17 17 16 16 16 16 17 18 17 18 18
13 13 13 13 13 13 13 13 13 13 13 13 15 16 17 17 17 17 17 17 17 17 16 16 16 16 16 16 16 17 17 17 17
13 13 13 13 13 13 13 13 14 15 15 16 16 16 17 17 17 17 16 16 16 16 16 16 16 16 16 16 15 16 16 16 17
13 14 14 14 14 14 14 15 15 15 15 16 16 16 17 17 17 17 17 16 16 16 16 15 15 15 15 15 15 15 15 15 16
15 15 15 15 15 15 15 15 15 15 15 16 16 16 17 17 17 16 16 15 16 15 15 15 15 15 15 15 15 15 15 15 15
14 15 14 14 14 15 15 15 15 15 15 16 16 16 17 17 16 16 15 14 15 15 15 15 15 15 15 15 15 15 15 15 15
15 15 15 14 15 15 15 15 15 15 15 15 16 16 16 17 16 15 15 14 15 15 14 14 14 14 14 15 15 15 16 15 15
15 15 14 14 14 14 15 15 15 15 15 15 15 16 16 16 16 15 14 13 14 14 14 14 14 14 14 14 14 14 14 14 15
15 14 14 14 14 14 14 14 14 15 15 15 15 15 16 16 15 14 14 13 13 13 13 13 13 14 14 14 14 14 14 14 14
14 14 14 13 13 13 13 14 14 14 14 14 14 14 15 15 14 14 14 13 13 13 13 13 13 13 13 14 13 13 13 13 13
13 14 13 13 13 13 13 13 14 14 14 14 14 14 14 14 14 14 14 13 13 13 12 12 12 12 13 13 13 13 12 12 13
13 13 13 13 13 13 13 13 13 14 14 14 14 14 14 14 14 14 13 13 13 13 13 12 12 11 12 12 12 12 12 12 12
13 13 12 12 12 13 13 13 13 13 13 14 14 14 13 14 13 13 13 13 12 12 12 12 11 11 11 11 11 11 11 11 11
12 12 12 12 12 12 12 12 13 12 12 13 14 13 13 13 12 12 12 12 12 11 11 11 11 10 10 10 10 10 10 10 11
12 12 12 12 12 12 12 12 12 12 12 13 13 13 13 12 12 12 12 12 11 11 10 10 10 10 10 9 9 9 9 10 10
12 12 12 12 12 11 11 12 12 12 12 13 13 13 13 12 12 12 12 12 11 11 10 10 10 10 9 9 9 9 9 9 10
11 11 11 11 11 11 11 11 11 12 11 11 11 10 12 13 13 13 12 12 12 11 11 10 9 9 9 9 9 9 9 8 9
12 11 11 11 10 10 10 10 10 10 11 11 11 8 8 10 13 13 12 12 12 12 11 11 10 9 9 9 9 9 9 8 8
11 11 11 10 10 10 10 10 10 10 10 11 11 11 11 8 8 12 12 12 12 12 11 11 10 10 9 9 8 8 9 7 8
11 11 10 11 10 10 10 10 10 9 10 10 10 10 11 11 9 7 10 11 11 11 11 11 11 10 10 9 8 8 8 7 7
Height
830 829 829 829 828 827 826 825 825 824 823 821 820 819 818 819 820 819 819 819 818 818 818 818 817 817 816 816 815 814 815 815 815
831 830 830 830 829 827 827 826 825 824 823 821 820 819 819 819 820 820 820 820 819 819 819 819 818 817 816 815 815 814 814 814 814
832 831 831 831 830 828 827 826 825 825 824 822 821 821 820 820 821 821 820 820 821 821 820 820 819 818 816 816 815 814 813 813 812
833 832 832 831 830 829 828 827 827 826 825 824 823 823 822 822 822 821 821 821 822 821 821 819 819 818 817 816 815 814 813 813 812
835 834 834 833 832 831 830 829 828 828 827 826 825 825 824 823 823 822 822 823 823 823 822 820 819 818 817 816 815 814 813 812 812
836 836 835 835 834 833 832 832 831 830 829 828 827 826 826 825 823 823 823 824 824 823 822 821 819 818 817 816 815 814 813 812 812
838 837 837 836 835 834 833 833 832 831 830 829 828 827 826 826 823 824 824 825 825 824 822 821 820 818 817 816 815 814 813 812 811
839 839 838 837 836 836 835 834 833 832 831 829 828 827 827 827 825 826 825 826 825 825 824 822 821 820 818 816 815 814 813 812 810
840 839 839 838 837 836 834 834 833 832 830 829 828 827 827 827 825 826 827 827 827 826 825 824 823 821 820 818 816 815 814 813 811
840 840 839 838 837 836 835 834 833 832 831 829 828 827 826 827 826 827 827 828 827 827 826 825 823 822 821 820 817 816 815 814 812
840 840 840 839 838 837 836 835 833 832 831 830 829 828 827 827 827 827 829 829 828 827 825 824 823 822 822 821 818 816 815 814 813
841 841 840 839 839 838 837 835 833 832 831 830 829 828 827 828 828 829 829 829 828 828 826 824 822 821 820 820 819 816 815 813 813
841 841 841 840 839 838 836 835 833 832 831 830 830 829 828 828 829 830 829 829 829 828 827 825 823 820 820 820 818 817 814 812 812
842 842 841 841 840 838 837 836 834 832 831 829 830 829 829 829 829 829 830 829 828 827 825 824 823 823 821 819 818 816 814 811 810
842 842 842 841 840 839 837 836 835 833 831 829 829 828 827 828 828 828 829 829 828 826 824 823 821 821 821 820 818 815 813 811 808
842 842 842 842 841 840 838 837 836 834 831 829 828 827 827 828 828 828 828 828 827 826 824 823 822 820 819 819 818 815 812 810 808
842 842 842 842 841 840 839 838 837 836 833 832 830 830 830 829 828 828 828 828 827 826 824 823 821 820 819 817 815 813 811 809 807
842 842 842 841 841 840 839 839 838 837 835 834 834 835 836 830 827 826 827 826 825 824 822 821 820 819 819 817 815 812 809 808 807
841 841 841 841 840 840 839 838 836 836 835 835 835 834 834 835 833 826 825 826 824 822 821 820 817 817 817 816 814 811 809 807 805
840 840 840 839 839 839 838 838 837 837 836 836 835 833 832 831 831 829 823 822 822 822 820 818 816 815 814 813 812 810 807 804 803
Wind_Speed
12 13 14 13 13 13 13 13 13 13 13 13 12 11 9 12 10 9 7 6 8 7 5 7 10 9 9 9 8 8 10 8 8
12 13 13 12 12 12 12 12 12 12 12 12 12 11 9 12 10 10 7 12 11 8 7 8 9 9 10 10 9 9 6 8 10
11 12 12 11 11 11 11 12 12 12 12 13 12 12 11 13 10 8 7 7 10 8 8 9 10 10 10 10 10 8 7 6 6
10 12 12 11 11 11 12 12 12 12 14 15 12 12 12 11 11 6 8 8 10 8 8 9 10 10 10 10 10 9 8 8 7
12 12 12 13 13 14 14 14 14 13 14 15 13 11 13 11 8 6 10 11 10 9 10 10 10 10 9 9 10 9 9 9 9
9 14 15 15 15 16 17 18 16 15 14 13 13 13 11 9 7 8 8 11 9 10 11 11 11 11 10 9 9 9 9 8 9
11 13 14 15 16 16 17 16 14 12 12 11 11 10 8 8 5 8 8 10 9 11 13 14 15 16 11 9 9 7 8 9 9
10 10 11 12 10 12 12 12 13 13 12 11 10 8 8 8 6 7 6 9 9 11 13 13 14 15 16 14 13 11 11 13 12
8 9 10 11 12 11 10 12 11 11 11 11 10 7 6 6 5 6 7 8 10 11 13 14 14 13 14 15 14 14 14 13 13
8 10 10 10 11 11 12 13 13 13 13 11 11 9 5 5 4 7 10 9 9 8 11 12 12 13 13 13 14 15 16 15 14
9 8 9 10 11 12 12 13 12 12 12 11 11 9 5 5 2 5 6 10 11 12 11 11 12 12 12 12 13 13 14 15 15
7 8 9 11 12 12 11 12 11 12 11 11 10 9 8 3 2 3 5 7 9 11 13 14 11 10 10 10 11 12 13 14 15
6 7 9 10 10 11 12 12 13 13 11 9 8 7 8 5 3 2 5 6 7 9 13 15 13 10 9 9 9 11 12 13 14
7 8 9 9 9 10 12 12 12 13 12 8 5 5 2 1 3 3 5 7 10 12 13 13 12 12 9 9 10 11 13 12 13
6 6 8 9 10 11 12 9 11 13 13 5 2 1 3 1 2 4 3 7 12 13 11 8 7 8 11 9 11 12 14 14 12
5 5 6 6 9 10 11 11 10 14 18 8 5 7 3 1 3 2 5 8 11 12 11 8 8 7 6 10 11 14 16 15 13
3 4 5 6 5 8 10 11 12 9 16 10 6 3 2 2 5 4 4 5 11 10 12 13 10 8 7 10 12 15 17 15 14
2 3 3 4 5 6 8 9 10 10 10 10 6 3 2 7 2 1 3 6 8 10 11 12 10 10 10 11 13 16 17 15 14
1 2 2 3 3 4 4 4 6 6 7 3 6 2 2 1 4 6 11 14 12 15 9 13 10 13 10 11 14 17 19 14 14
1 1 1 2 2 3 4 5 5 4 4 5 6 5 8 9 5 4 7 18 17 13 18 15 12 9 11 14 14 19 19 13 12
Wind_Direction
49 46 42 38 37 35 32 29 26 24 22 19 17 27 45 58 31 28 16 7 323 326 353 27 29 24 16 7 348 307 278 279 280
48 44 40 37 34 33 29 26 24 22 20 18 21 29 55 52 44 33 24 35 20 31 46 22 7 0 357 356 350 1 310 285 283
50 43 39 35 34 32 28 26 24 23 22 21 23 36 56 44 24 34 31 34 31 27 16 8 1 356 351 349 347 351 0 353 319
48 37 37 35 34 32 29 27 26 32 29 26 29 54 50 43 31 21 353 28 21 16 11 5 2 357 352 349 349 346 341 340 341
29 34 33 31 31 28 24 22 29 24 18 23 33 33 28 34 25 26 10 26 20 13 10 3 358 353 351 353 353 351 349 345 338
14 25 23 25 24 21 22 24 25 22 11 11 15 16 15 26 8 10 24 27 16 11 10 9 7 4 352 343 347 348 346 351 345
24 16 12 12 16 9 13 7 11 5 9 8 8 5 16 21 16 25 34 30 32 30 29 27 19 22 12 4 358 345 343 339 335
26 14 15 10 5 9 7 8 2 4 3 4 1 9 11 15 4 23 34 39 30 25 22 20 15 17 17 27 30 30 25 21 16
33 20 14 9 15 5 13 4 2 7 359 4 360 16 21 22 5 40 29 41 36 27 25 26 21 15 10 16 19 21 19 16 15
37 24 16 8 7 11 13 4 3 5 357 7 4 10 14 53 25 50 27 29 27 26 18 20 15 13 14 12 20 23 14 10 8
38 27 18 3 12 16 10 3 10 7 1 8 11 15 25 77 48 20 21 22 18 13 19 19 14 12 6 4 13 16 8 4 360
36 25 11 19 14 9 19 9 21 12 11 21 21 25 53 94 67 12 29 21 8 2 356 354 357 9 14 6 5 10 8 9 2
36 37 18 24 22 9 21 13 18 16 10 21 22 62 58 46 4 332 18 359 353 347 345 345 351 4 16 16 16 10 12 8 1
38 30 23 33 25 19 21 21 19 10 7 17 21 18 49 42 359 27 28 341 347 344 343 343 346 355 357 16 12 11 4 6 1
62 37 23 34 27 26 23 25 22 8 360 352 304 306 348 114 330 356 360 338 341 337 343 15 357 356 355 0 359 0 358 354 356
62 57 28 48 27 23 21 24 23 14 11 11 3 235 244 268 301 306 307 318 345 339 346 339 324 322 343 337 353 350 354 351 347
62 72 45 39 40 24 25 29 22 27 19 11 325 347 229 289 256 319 320 334 342 338 341 334 331 332 337 334 335 341 348 350 347
77 68 62 40 40 27 26 23 30 10 14 34 39 9 325 335 293 227 315 323 326 336 337 340 312 325 325 331 333 339 344 348 346
63 62 47 27 30 9 26 12 30 20 18 43 21 349 283 315 328 318 334 350 355 340 318 333 304 316 312 323 325 333 340 342 343
279 290 304 294 299 328 346 355 9 14 351 351 344 335 313 245 240 285 315 318 324 326 323 315 293 292 279 304 314 329 335 334 339